sat.trackr.live / text

‹ back to catalog

STARLINK-32959

NORAD 63569 · 2025-076A

PAYLOAD ACTIVE UNKNOWN

§ Identity

Operator
Country
US
Launch date
2025-04-14
Launch site
AFETR
Launch vehicle
Mass (kg)
RCS (m²)

Purposes: comms

External: N2YO · Heavens-Above · Gunter

§ Orbital elements

Epoch: 2026-09-20T09:36:17.063136Z

Period
94.27 min
Inclination
43.0006°
Eccentricity
0.0001337
Mean motion
15.27593019 rev/d
Perigee alt
482.1 km
Apogee alt
483.9 km
Semi-major
6,861.1 km
B*
3.6304e-4
RAAN
306.0559°
Arg perigee
273.8914°
Mean anomaly
86.1785°
Rev number
8,156

§ Raw data

STARLINK-329591 63569U 25076A   26263.40019749  .00009745  00000+0  36304-3 0  99952 63569  43.0006 306.0559 0001337 273.8914  86.1785 15.27593019 81567

JSON: /api/v1/satellites/63569 · /tle

For live sub-satellite position, see the globe view (requires WebGL).

§ Visibility from observer

Set your observer location to see the next 7 days of passes ≥ 10°. The values pass through the URL so the page stays shareable.

No JS? Fill the form by hand. The geolocation button needs JavaScript.